Precipitable_Water
1.32 1.25 1.25 1.23 1.20 1.14 1.13 1.15 1.17 1.24 1.29 1.34 1.33 1.35 1.39 1.44 1.45 1.47 1.53 1.55 1.62 1.65 1.66 1.65 1.65 1.62 1.59 1.60 1.61 1.63 1.64 1.63 1.75 1.85 1.80 1.75 1.72 1.68 1.66 1.65 1.60 1.60 1.62 1.62 1.67 1.66 1.64 1.60 1.59 1.61 1.65 1.60 1.61 1.62 1.62 1.63 1.67 1.72 1.75 1.72 1.64 1.63 1.59 1.55 1.46 1.46 1.63 1.80 1.72 1.66 1.71 1.70 1.60 1.64 1.55 1.56 1.58 1.63 1.67 1.69 1.74 1.75 1.78 1.84 1.90
1.40 1.33 1.27 1.25 1.21 1.19 1.17 1.17 1.17 1.20 1.21 1.25 1.25 1.27 1.31 1.37 1.44 1.48 1.46 1.53 1.59 1.62 1.64 1.70 1.73 1.70 1.64 1.61 1.62 1.58 1.58 1.56 1.68 1.73 1.58 1.64 1.72 1.76 1.73 1.66 1.63 1.63 1.65 1.62 1.68 1.69 1.67 1.60 1.60 1.65 1.69 1.67 1.68 1.69 1.74 1.78 1.80 1.78 1.76 1.72 1.65 1.63 1.73 1.64 1.58 1.50 1.43 1.64 1.65 1.71 1.63 1.67 1.46 1.60 1.51 1.48 1.51 1.60 1.60 1.68 1.79 1.83 1.84 1.89 1.92
1.47 1.41 1.32 1.24 1.21 1.23 1.23 1.20 1.19 1.17 1.17 1.19 1.21 1.24 1.28 1.32 1.41 1.41 1.42 1.45 1.54 1.58 1.66 1.63 1.68 1.70 1.64 1.68 1.71 1.73 1.78 1.86 1.88 1.85 1.84 1.81 1.74 1.79 1.77 1.73 1.69 1.66 1.65 1.69 1.75 1.80 1.74 1.71 1.73 1.75 1.77 1.72 1.74 1.76 1.80 1.80 1.82 1.78 1.76 1.76 1.71 1.75 1.80 1.79 1.66 1.51 1.47 1.47 1.58 1.54 1.55 1.56 1.50 1.51 1.59 1.62 1.64 1.66 1.64 1.67 1.74 1.85 1.94 1.97 1.95
1.51 1.46 1.36 1.26 1.23 1.23 1.23 1.25 1.23 1.20 1.17 1.20 1.22 1.27 1.30 1.32 1.39 1.39 1.41 1.46 1.48 1.61 1.53 1.60 1.71 1.70 1.73 1.82 1.78 1.76 1.78 1.84 1.86 1.87 1.82 1.81 1.81 1.78 1.75 1.84 1.81 1.75 1.72 1.74 1.77 1.77 1.74 1.71 1.72 1.73 1.73 1.68 1.69 1.71 1.74 1.76 1.74 1.73 1.73 1.78 1.79 1.78 1.81 1.81 1.79 1.66 1.59 1.48 1.59 1.63 1.68 1.60 1.60 1.65 1.68 1.69 1.67 1.69 1.73 1.76 1.82 1.82 1.88 1.94 1.93
1.53 1.51 1.45 1.33 1.26 1.23 1.23 1.26 1.25 1.23 1.22 1.23 1.24 1.29 1.33 1.36 1.40 1.42 1.49 1.51 1.58 1.56 1.56 1.66 1.71 1.84 1.85 1.74 1.71 1.79 1.83 1.86 1.87 1.86 1.84 1.87 1.84 1.79 1.77 1.77 1.77 1.79 1.79 1.74 1.74 1.73 1.71 1.67 1.68 1.71 1.70 1.62 1.62 1.61 1.65 1.64 1.68 1.71 1.72 1.77 1.79 1.82 1.84 1.82 1.79 1.78 1.68 1.60 1.64 1.74 1.78 1.74 1.75 1.73 1.74 1.62 1.61 1.66 1.74 1.76 1.79 1.80 1.84 1.92 1.95
1.56 1.53 1.50 1.43 1.34 1.26 1.24 1.26 1.27 1.27 1.27 1.26 1.28 1.32 1.37 1.40 1.43 1.50 1.56 1.58 1.63 1.62 1.64 1.68 1.76 1.81 1.88 1.85 1.82 1.82 1.84 1.86 1.85 1.85 1.89 1.95 1.94 1.88 1.85 1.86 1.86 1.82 1.78 1.76 1.73 1.73 1.70 1.69 1.69 1.68 1.62 1.54 1.53 1.57 1.60 1.60 1.64 1.65 1.65 1.66 1.68 1.70 1.70 1.73 1.75 1.73 1.69 1.65 1.64 1.59 1.69 1.67 1.69 1.74 1.83 1.81 1.68 1.59 1.60 1.68 1.75 1.80 1.79 1.81 1.91
1.58 1.54 1.52 1.48 1.42 1.33 1.27 1.27 1.30 1.33 1.34 1.33 1.35 1.36 1.38 1.41 1.45 1.49 1.58 1.63 1.64 1.65 1.67 1.67 1.79 1.85 1.89 1.90 1.87 1.86 1.86 1.89 1.89 1.89 1.92 1.95 1.94 1.93 1.91 1.91 1.91 1.89 1.82 1.74 1.74 1.73 1.73 1.72 1.69 1.66 1.61 1.59 1.57 1.57 1.59 1.61 1.64 1.62 1.63 1.62 1.64 1.61 1.58 1.58 1.61 1.61 1.61 1.57 1.57 1.57 1.53 1.63 1.65 1.56 1.74 1.87 1.82 1.78 1.68 1.62 1.56 1.73 1.81 1.81 1.80
1.60 1.56 1.53 1.49 1.45 1.41 1.35 1.33 1.34 1.38 1.41 1.42 1.41 1.40 1.43 1.44 1.45 1.50 1.57 1.61 1.63 1.64 1.64 1.67 1.79 1.87 1.90 1.90 1.92 1.95 1.96 1.95 1.93 1.92 1.91 1.87 1.84 1.85 1.87 1.88 1.88 1.85 1.77 1.73 1.73 1.73 1.74 1.74 1.72 1.70 1.68 1.68 1.67 1.66 1.68 1.65 1.67 1.63 1.67 1.65 1.63 1.58 1.53 1.53 1.52 1.51 1.49 1.47 1.45 1.44 1.49 1.48 1.54 1.64 1.71 1.68 1.58 1.60 1.72 1.70 1.59 1.62 1.70 1.83 1.91
1.61 1.58 1.55 1.48 1.44 1.46 1.45 1.42 1.40 1.42 1.45 1.46 1.45 1.47 1.51 1.53 1.50 1.49 1.53 1.59 1.63 1.65 1.67 1.69 1.72 1.76 1.84 1.89 1.93 2.00 1.99 1.93 1.89 1.87 1.86 1.86 1.85 1.84 1.89 1.90 1.85 1.78 1.76 1.74 1.74 1.76 1.79 1.79 1.79 1.78 1.79 1.85 1.84 1.79 1.77 1.76 1.68 1.60 1.62 1.64 1.59 1.53 1.48 1.47 1.44 1.43 1.42 1.42 1.40 1.48 1.47 1.48 1.54 1.56 1.58 1.58 1.55 1.52 1.64 1.72 1.68 1.75 1.77 1.72 1.81
1.65 1.61 1.55 1.51 1.50 1.50 1.50 1.48 1.42 1.41 1.43 1.43 1.44 1.50 1.55 1.56 1.54 1.50 1.50 1.56 1.59 1.63 1.66 1.71 1.74 1.76 1.80 1.87 1.92 1.97 1.97 1.95 1.90 1.86 1.85 1.87 1.90 1.90 1.90 1.88 1.85 1.79 1.78 1.75 1.75 1.79 1.78 1.80 1.83 1.83 1.83 1.81 1.76 1.76 1.79 1.81 1.80 1.76 1.72 1.69 1.60 1.50 1.44 1.40 1.40 1.42 1.40 1.34 1.34 1.38 1.38 1.44 1.54 1.62 1.64 1.70 1.77 1.77 1.71 1.72 1.64 1.72 1.74 1.68 1.69
1.67 1.62 1.56 1.55 1.56 1.56 1.53 1.48 1.43 1.39 1.41 1.43 1.45 1.49 1.52 1.53 1.52 1.50 1.50 1.53 1.54 1.57 1.62 1.65 1.70 1.76 1.80 1.84 1.86 1.89 1.91 1.92 1.90 1.90 1.89 1.90 1.94 1.94 1.91 1.89 1.88 1.86 1.84 1.79 1.77 1.79 1.81 1.82 1.79 1.78 1.74 1.70 1.70 1.72 1.73 1.71 1.71 1.72 1.73 1.72 1.71 1.63 1.52 1.44 1.43 1.47 1.44 1.42 1.45 1.46 1.46 1.48 1.57 1.67 1.71 1.73 1.77 1.73 1.70 1.71 1.70 1.70 1.63 1.54 1.43
1.67 1.64 1.60 1.58 1.58 1.56 1.53 1.48 1.42 1.40 1.43 1.43 1.45 1.48 1.52 1.53 1.52 1.52 1.52 1.53 1.55 1.57 1.57 1.61 1.67 1.73 1.77 1.80 1.79 1.79 1.82 1.87 1.89 1.86 1.85 1.85 1.90 1.94 1.95 1.94 1.94 1.93 1.92 1.89 1.89 1.89 1.88 1.85 1.84 1.85 1.80 1.74 1.70 1.66 1.64 1.63 1.64 1.64 1.62 1.63 1.62 1.61 1.61 1.55 1.47 1.41 1.41 1.40 1.40 1.45 1.48 1.48 1.52 1.58 1.61 1.65 1.67 1.70 1.74 1.73 1.70 1.67 1.64 1.61 1.61
1.71 1.66 1.64 1.61 1.58 1.57 1.55 1.49 1.42 1.41 1.42 1.45 1.48 1.50 1.50 1.51 1.53 1.55 1.55 1.59 1.60 1.56 1.54 1.56 1.58 1.64 1.66 1.66 1.68 1.73 1.74 1.77 1.77 1.77 1.78 1.82 1.87 1.93 1.98 2.01 1.99 1.96 1.95 1.97 2.01 1.99 1.97 1.93 1.89 1.86 1.82 1.78 1.75 1.70 1.64 1.61 1.60 1.56 1.53 1.55 1.56 1.54 1.52 1.54 1.57 1.54 1.51 1.46 1.45 1.47 1.50 1.50 1.46 1.49 1.56 1.58 1.66 1.59 1.66 1.65 1.67 1.67 1.67 1.62 1.65
1.87 1.74 1.70 1.66 1.63 1.61 1.57 1.51 1.43 1.41 1.43 1.46 1.49 1.49 1.49 1.50 1.55 1.58 1.59 1.59 1.55 1.54 1.56 1.56 1.59 1.60 1.62 1.63 1.62 1.62 1.62 1.64 1.67 1.69 1.71 1.74 1.82 1.88 1.91 1.95 1.96 2.06 2.08 2.09 2.06 2.03 2.00 1.95 1.92 1.85 1.83 1.81 1.75 1.66 1.62 1.60 1.58 1.57 1.56 1.54 1.53 1.55 1.56 1.56 1.53 1.53 1.54 1.51 1.49 1.45 1.54 1.59 1.52 1.57 1.64 1.67 1.59 1.55 1.57 1.59 1.66 1.64 1.66 1.66 1.76
1.95 1.91 1.81 1.75 1.72 1.68 1.62 1.53 1.45 1.44 1.45 1.46 1.47 1.48 1.49 1.53 1.55 1.58 1.58 1.57 1.57 1.58 1.60 1.61 1.62 1.63 1.64 1.65 1.62 1.58 1.60 1.65 1.70 1.74 1.74 1.75 1.77 1.81 1.87 1.90 1.87 1.85 1.87 1.97 2.01 1.95 1.96 1.94 1.96 1.93 1.87 1.79 1.72 1.66 1.60 1.57 1.58 1.57 1.56 1.55 1.56 1.57 1.58 1.59 1.61 1.63 1.64 1.64 1.63 1.63 1.65 1.70 1.70 1.71 1.72 1.73 1.69 1.67 1.68 1.65 1.68 1.71 1.75 1.82 1.83
1.90 1.97 1.91 1.85 1.82 1.81 1.75 1.64 1.52 1.48 1.48 1.49 1.49 1.50 1.54 1.56 1.56 1.58 1.56 1.56 1.58 1.61 1.66 1.71 1.67 1.68 1.73 1.75 1.71 1.64 1.63 1.64 1.66 1.69 1.72 1.75 1.76 1.77 1.80 1.83 1.88 1.84 1.76 1.74 1.75 1.78 1.79 1.83 1.90 1.81 1.79 1.70 1.67 1.63 1.61 1.60 1.58 1.57 1.56 1.58 1.58 1.60 1.63 1.71 1.74 1.76 1.77 1.78 1.79 1.80 1.82 1.85 1.85 1.84 1.84 1.82 1.79 1.79 1.79 1.79 1.77 1.72 1.65 1.59 1.57
1.84 1.92 1.92 1.97 1.92 1.90 1.88 1.80 1.67 1.57 1.57 1.57 1.56 1.58 1.59 1.57 1.55 1.58 1.61 1.62 1.58 1.61 1.68 1.73 1.75 1.76 1.74 1.75 1.69 1.64 1.62 1.64 1.66 1.67 1.70 1.74 1.79 1.80 1.78 1.74 1.71 1.68 1.66 1.66 1.71 1.76 1.81 1.86 1.87 1.84 1.76 1.67 1.61 1.58 1.61 1.61 1.58 1.58 1.58 1.58 1.60 1.61 1.63 1.73 1.78 1.78 1.79 1.81 1.84 1.86 1.85 1.83 1.82 1.82 1.81 1.83 1.83 1.84 1.79 1.67 1.59 1.64 1.54 1.44 1.50
1.87 1.86 1.89 1.95 1.99 1.96 2.00 1.95 1.82 1.73 1.75 1.72 1.70 1.68 1.65 1.64 1.61 1.64 1.64 1.65 1.62 1.64 1.64 1.70 1.78 1.82 1.76 1.68 1.65 1.65 1.69 1.75 1.77 1.77 1.74 1.74 1.76 1.78 1.83 1.80 1.70 1.68 1.67 1.69 1.72 1.76 1.82 1.80 1.78 1.69 1.62 1.63 1.64 1.66 1.65 1.63 1.56 1.55 1.53 1.51 1.50 1.52 1.57 1.66 1.70 1.72 1.75 1.75 1.77 1.78 1.77 1.76 1.75 1.73 1.71 1.70 1.70 1.71 1.60 1.45 1.52 1.54 1.45 1.44 1.39
1.91 1.92 1.94 1.99 2.02 2.01 2.06 2.09 2.16 2.02 1.95 1.90 1.83 1.79 1.76 1.70 1.71 1.75 1.78 1.82 1.80 1.71 1.67 1.69 1.75 1.76 1.72 1.71 1.72 1.69 1.68 1.74 1.80 1.83 1.82 1.81 1.83 1.84 1.89 1.90 1.84 1.81 1.80 1.78 1.80 1.85 1.84 1.83 1.75 1.70 1.72 1.72 1.72 1.69 1.66 1.61 1.54 1.50 1.47 1.42 1.38 1.37 1.45 1.55 1.58 1.57 1.56 1.58 1.62 1.64 1.61 1.61 1.61 1.60 1.59 1.60 1.61 1.60 1.58 1.54 1.53 1.45 1.37 1.38 1.38
1.93 1.98 2.04 2.06 2.05 2.05 2.04 2.03 2.05 2.12 2.08 2.10 2.11 1.96 2.00 1.99 1.81 1.75 1.79 1.80 1.80 1.78 1.73 1.71 1.72 1.72 1.76 1.78 1.79 1.76 1.75 1.71 1.70 1.73 1.80 1.85 1.88 1.96 1.96 1.90 1.89 1.79 1.81 1.79 1.76 1.79 1.78 1.76 1.78 1.76 1.72 1.73 1.71 1.69 1.67 1.64 1.56 1.52 1.46 1.37 1.32 1.31 1.45 1.49 1.53 1.53 1.48 1.47 1.46 1.47 1.44 1.44 1.43 1.42 1.41 1.45 1.50 1.52 1.49 1.48 1.45 1.41 1.35 1.32 1.33
1.95 1.99 2.03 2.03 2.03 2.14 2.15 2.12 1.99 1.97 2.08 2.09 2.15 2.07 2.01 1.97 1.90 1.82 1.80 1.80 1.78 1.75 1.74 1.75 1.72 1.70 1.72 1.78 1.81 1.80 1.79 1.73 1.78 1.84 1.91 1.94 1.94 1.91 1.91 1.87 1.86 1.87 1.84 1.80 1.76 1.74 1.78 1.79 1.75 1.74 1.74 1.73 1.71 1.67 1.62 1.60 1.58 1.54 1.49 1.42 1.43 1.48 1.50 1.42 1.40 1.41 1.36 1.31 1.26 1.22 1.21 1.21 1.22 1.25 1.26 1.28 1.33 1.39 1.41 1.42 1.39 1.39 1.36 1.29 1.25
1.95 1.98 2.02 2.04 2.04 2.05 2.15 2.15 2.15 2.02 2.03 2.11 2.09 1.99 1.98 1.93 1.95 1.93 1.87 1.81 1.76 1.74 1.74 1.74 1.73 1.73 1.73 1.70 1.69 1.69 1.71 1.71 1.72 1.79 1.86 1.89 1.90 1.92 1.91 1.91 1.88 1.82 1.76 1.73 1.67 1.64 1.72 1.70 1.68 1.72 1.72 1.71 1.67 1.65 1.62 1.63 1.65 1.60 1.51 1.47 1.45 1.44 1.37 1.32 1.27 1.23 1.17 1.13 1.10 1.06 1.05 1.04 1.03 1.04 1.08 1.11 1.14 1.20 1.24 1.28 1.36 1.37 1.38 1.39 1.34
1.91 1.95 1.96 2.00 2.03 2.08 2.12 2.15 2.13 2.11 2.04 2.11 2.07 1.99 1.95 1.94 1.93 1.86 1.82 1.81 1.78 1.74 1.71 1.70 1.67 1.61 1.61 1.64 1.68 1.70 1.70 1.69 1.66 1.64 1.68 1.71 1.71 1.71 1.77 1.85 1.89 1.86 1.75 1.69 1.59 1.61 1.70 1.72 1.71 1.71 1.71 1.71 1.69 1.67 1.66 1.65 1.60 1.51 1.44 1.38 1.36 1.34 1.29 1.23 1.18 1.12 1.08 1.04 1.00 0.95 0.95 0.94 0.91 0.90 0.92 0.93 0.98 1.03 1.06 1.09 1.14 1.21 1.24 1.26 1.31
1.90 1.91 1.96 2.01 2.05 2.08 2.09 2.11 2.13 2.07 2.05 2.06 2.06 1.99 1.98 1.93 1.88 1.86 1.86 1.81 1.74 1.67 1.65 1.64 1.60 1.57 1.54 1.53 1.55 1.57 1.59 1.58 1.58 1.58 1.57 1.58 1.61 1.63 1.69 1.73 1.71 1.66 1.59 1.55 1.53 1.54 1.57 1.62 1.69 1.72 1.72 1.72 1.70 1.65 1.63 1.59 1.54 1.48 1.43 1.40 1.36 1.31 1.24 1.16 1.08 1.01 0.95 0.91 0.86 0.82 0.80 0.79 0.77 0.75 0.75 0.78 0.79 0.82 0.85 0.88 0.92 0.99 1.06 1.07 1.10
1.88 1.88 1.90 1.96 2.01 2.03 2.05 2.06 2.06 2.04 2.03 2.02 1.91 1.85 1.84 1.85 1.81 1.80 1.76 1.69 1.64 1.59 1.59 1.59 1.56 1.52 1.49 1.45 1.45 1.46 1.50 1.55 1.59 1.62 1.59 1.55 1.55 1.57 1.59 1.65 1.64 1.62 1.58 1.58 1.58 1.48 1.54 1.62 1.66 1.67 1.67 1.64 1.61 1.59 1.55 1.50 1.45 1.38 1.36 1.31 1.24 1.16 1.08 0.97 0.87 0.80 0.72 0.67 0.64 0.61 0.60 0.60 0.60 0.61 0.63 0.63 0.65 0.67 0.69 0.70 0.75 0.80 0.86 0.89 0.87
1.89 1.90 1.92 1.96 1.99 2.02 1.94 1.97 1.97 1.93 1.88 1.88 1.87 1.87 1.81 1.75 1.70 1.68 1.67 1.65 1.62 1.58 1.55 1.53 1.47 1.42 1.37 1.34 1.33 1.34 1.34 1.34 1.33 1.35 1.37 1.40 1.40 1.41 1.40 1.40 1.44 1.46 1.41 1.35 1.34 1.31 1.34 1.43 1.50 1.55 1.56 1.56 1.52 1.45 1.39 1.34 1.28 1.23 1.18 1.12 1.04 0.96 0.89 0.83 0.77 0.70 0.63 0.60 0.58 0.56 0.57 0.59 0.59 0.61 0.62 0.62 0.58 0.57 0.58 0.55 0.54 0.54 0.59 0.59 0.60
1.86 1.90 1.90 1.90 1.94 1.95 1.87 1.82 1.82 1.80 1.78 1.79 1.82 1.79 1.74 1.72 1.69 1.67 1.64 1.60 1.55 1.50 1.43 1.38 1.35 1.30 1.23 1.20 1.19 1.19 1.19 1.20 1.19 1.19 1.20 1.21 1.21 1.21 1.21 1.21 1.23 1.24 1.22 1.20 1.16 1.14 1.17 1.28 1.39 1.43 1.40 1.37 1.35 1.32 1.24 1.19 1.13 1.08 1.03 0.99 0.95 0.90 0.86 0.80 0.74 0.68 0.64 0.60 0.58 0.57 0.59 0.60 0.62 0.61 0.58 0.57 0.56 0.58 0.61 0.59 0.56 0.55 0.55 0.54 0.50
1.74 1.75 1.76 1.78 1.79 1.80 1.79 1.77 1.75 1.73 1.76 1.77 1.74 1.70 1.70 1.68 1.62 1.57 1.55 1.51 1.44 1.39 1.34 1.27 1.20 1.14 1.10 1.08 1.05 1.02 1.00 0.98 0.98 0.98 1.00 1.01 1.02 1.04 1.07 1.11 1.14 1.15 1.12 1.10 1.07 1.05 1.05 1.19 1.31 1.28 1.23 1.19 1.16 1.12 1.08 1.04 1.02 0.99 0.96 0.94 0.92 0.90 0.86 0.80 0.75 0.70 0.67 0.63 0.60 0.59 0.59 0.58 0.56 0.56 0.56 0.55 0.54 0.56 0.58 0.56 0.55 0.54 0.55 0.54 0.48
1.84 1.79 1.77 1.78 1.78 1.83 1.80 1.77 1.75 1.72 1.68 1.63 1.61 1.61 1.58 1.55 1.52 1.51 1.53 1.50 1.41 1.29 1.18 1.12 1.09 1.06 1.01 0.97 0.92 0.91 0.92 0.91 0.96 1.02 1.05 1.06 1.05 1.04 1.05 1.06 1.08 1.09 1.10 1.12 1.16 1.09 0.99 1.01 1.05 1.06 1.05 1.04 1.04 1.04 1.03 1.00 0.97 0.95 0.92 0.90 0.86 0.82 0.77 0.72 0.68 0.65 0.64 0.61 0.57 0.56 0.56 0.56 0.55 0.55 0.53 0.50 0.50 0.50 0.53 0.50 0.51 0.49 0.50 0.51 0.47
1.66 1.69 1.75 1.78 1.76 1.74 1.72 1.72 1.68 1.64 1.61 1.56 1.52 1.51 1.54 1.52 1.49 1.42 1.37 1.37 1.29 1.21 1.12 1.07 1.05 1.02 0.98 0.99 0.98 0.92 0.92 0.99 1.06 1.06 1.06 1.05 1.03 1.02 1.02 1.02 1.03 1.04 1.03 1.03 1.02 0.99 0.99 0.97 0.98 0.98 0.99 1.00 1.00 0.97 0.94 0.90 0.86 0.84 0.83 0.82 0.79 0.75 0.71 0.68 0.65 0.62 0.61 0.58 0.57 0.55 0.55 0.54 0.52 0.53 0.52 0.50 0.50 0.50 0.51 0.49 0.47 0.48 0.45 0.44 0.43
1.57 1.59 1.64 1.65 1.65 1.63 1.62 1.60 1.60 1.57 1.54 1.47 1.40 1.34 1.31 1.32 1.33 1.31 1.28 1.21 1.14 1.11 1.10 1.10 1.09 1.06 1.01 0.97 0.99 1.01 1.01 1.01 0.98 0.96 0.93 0.90 0.88 0.85 0.85 0.86 0.89 0.92 0.95 0.93 0.91 0.89 0.90 0.89 0.93 0.95 0.95 0.93 0.89 0.86 0.84 0.81 0.78 0.76 0.75 0.75 0.73 0.70 0.67 0.65 0.64 0.63 0.61 0.60 0.60 0.59 0.58 0.56 0.55 0.55 0.53 0.52 0.49 0.47 0.47 0.47 0.46 0.44 0.42 0.42 0.41
1.51 1.52 1.56 1.59 1.61 1.57 1.54 1.51 1.48 1.42 1.36 1.30 1.23 1.18 1.15 1.12 1.12 1.15 1.14 1.11 1.10 1.09 1.08 1.08 1.07 1.06 1.05 1.01 0.95 0.92 0.91 0.86 0.82 0.81 0.80 0.80 0.79 0.80 0.80 0.81 0.82 0.84 0.85 0.85 0.80 0.82 0.84 0.83 0.84 0.85 0.86 0.83 0.82 0.82 0.79 0.77 0.75 0.72 0.70 0.67 0.67 0.68 0.66 0.64 0.66 0.65 0.64 0.63 0.61 0.61 0.60 0.59 0.58 0.57 0.56 0.53 0.51 0.47 0.45 0.43 0.42 0.41 0.40 0.41 0.41
1.46 1.44 1.46 1.48 1.47 1.43 1.38 1.33 1.28 1.24 1.18 1.13 1.10 1.10 1.08 1.07 1.05 1.05 1.11 1.14 1.11 1.08 1.06 1.06 1.04 1.00 0.94 0.85 0.78 0.73 0.72 0.73 0.73 0.73 0.75 0.77 0.77 0.75 0.75 0.75 0.75 0.76 0.76 0.73 0.71 0.72 0.75 0.76 0.76 0.77 0.77 0.75 0.75 0.74 0.73 0.72 0.70 0.69 0.68 0.66 0.65 0.66 0.66 0.67 0.67 0.65 0.63 0.62 0.61 0.60 0.60 0.59 0.59 0.57 0.55 0.52 0.48 0.44 0.44 0.42 0.41 0.41 0.41 0.39 0.39
1.24 1.18 1.15 1.14 1.11 1.09 1.09 1.08 1.06 1.05 1.05 1.05 1.04 1.04 1.04 1.04 1.02 1.00 0.98 0.97 0.99 1.01 1.01 0.95 0.88 0.81 0.75 0.72 0.70 0.68 0.68 0.69 0.70 0.71 0.70 0.71 0.73 0.74 0.73 0.73 0.74 0.74 0.70 0.66 0.67 0.66 0.70 0.71 0.72 0.73 0.73 0.73 0.73 0.73 0.71 0.71 0.71 0.69 0.68 0.66 0.65 0.65 0.65 0.66 0.64 0.62 0.61 0.60 0.59 0.58 0.58 0.57 0.56 0.52 0.49 0.47 0.46 0.44 0.42 0.41 0.41 0.39 0.39 0.40 0.39
1.16 1.11 1.07 1.04 1.02 1.00 1.00 1.00 1.00 1.00 1.00 1.00 0.99 0.99 0.99 0.99 0.97 0.92 0.86 0.82 0.78 0.76 0.74 0.76 0.78 0.77 0.73 0.71 0.70 0.69 0.68 0.68 0.68 0.69 0.70 0.70 0.70 0.70 0.71 0.68 0.66 0.67 0.68 0.68 0.67 0.68 0.67 0.68 0.68 0.69 0.69 0.68 0.68 0.68 0.67 0.67 0.66 0.65 0.64 0.63 0.62 0.63 0.63 0.63 0.61 0.60 0.59 0.58 0.57 0.55 0.54 0.53 0.51 0.50 0.47 0.44 0.41 0.39 0.39 0.40 0.39 0.41 0.40 0.41 0.41
1.17 1.14 1.11 1.09 1.07 1.06 1.05 1.06 1.06 1.04 1.01 0.99 0.97 0.95 0.92 0.87 0.79 0.74 0.72 0.71 0.67 0.65 0.67 0.70 0.72 0.73 0.72 0.70 0.70 0.69 0.68 0.69 0.68 0.69 0.70 0.71 0.71 0.68 0.64 0.65 0.63 0.63 0.63 0.66 0.67 0.68 0.68 0.67 0.65 0.64 0.65 0.65 0.66 0.66 0.67 0.65 0.65 0.64 0.63 0.62 0.61 0.61 0.60 0.60 0.59 0.58 0.56 0.55 0.55 0.54 0.52 0.51 0.49 0.48 0.46 0.44 0.42 0.40 0.40 0.40 0.40 0.42 0.43 0.43 0.45
1.25 1.26 1.25 1.22 1.18 1.16 1.14 1.13 1.10 1.05 0.99 0.94 0.88 0.83 0.78 0.75 0.73 0.71 0.70 0.67 0.65 0.66 0.66 0.66 0.67 0.67 0.70 0.70 0.69 0.66 0.65 0.63 0.62 0.63 0.64 0.65 0.65 0.62 0.60 0.60 0.60 0.62 0.62 0.63 0.64 0.64 0.63 0.64 0.65 0.64 0.64 0.63 0.63 0.63 0.62 0.62 0.62 0.62 0.62 0.62 0.62 0.61 0.61 0.60 0.59 0.59 0.58 0.57 0.55 0.53 0.51 0.49 0.48 0.47 0.45 0.42 0.42 0.42 0.42 0.43 0.43 0.44 0.45 0.46 0.46
1.20 1.21 1.21 1.21 1.18 1.15 1.09 1.03 0.97 0.91 0.85 0.81 0.79 0.77 0.75 0.75 0.74 0.72 0.68 0.67 0.66 0.65 0.63 0.65 0.66 0.63 0.60 0.61 0.65 0.60 0.59 0.60 0.60 0.60 0.61 0.61 0.61 0.61 0.62 0.61 0.61 0.59 0.59 0.61 0.62 0.62 0.62 0.63 0.64 0.62 0.62 0.62 0.60 0.60 0.60 0.60 0.61 0.61 0.61 0.61 0.62 0.62 0.61 0.59 0.59 0.58 0.58 0.55 0.53 0.51 0.49 0.47 0.46 0.45 0.46 0.44 0.44 0.44 0.44 0.45 0.45 0.45 0.46 0.47 0.46
1.13 1.10 1.07 1.04 0.99 0.93 0.88 0.84 0.82 0.81 0.81 0.80 0.80 0.78 0.75 0.73 0.71 0.68 0.66 0.65 0.64 0.64 0.65 0.63 0.62 0.60 0.60 0.61 0.59 0.62 0.59 0.54 0.53 0.52 0.55 0.57 0.60 0.62 0.62 0.63 0.63 0.63 0.64 0.64 0.65 0.64 0.63 0.62 0.63 0.63 0.62 0.62 0.62 0.62 0.62 0.62 0.62 0.61 0.61 0.60 0.60 0.59 0.59 0.58 0.56 0.55 0.54 0.51 0.50 0.48 0.46 0.45 0.46 0.46 0.47 0.47 0.46 0.47 0.46 0.47 0.47 0.47 0.46 0.46 0.47
1.06 0.98 0.92 0.87 0.82 0.79 0.75 0.71 0.69 0.69 0.71 0.73 0.75 0.77 0.75 0.71 0.68 0.67 0.65 0.63 0.62 0.63 0.62 0.60 0.59 0.59 0.61 0.62 0.59 0.58 0.52 0.52 0.53 0.54 0.54 0.55 0.55 0.57 0.59 0.58 0.58 0.59 0.59 0.60 0.61 0.61 0.61 0.61 0.61 0.61 0.61 0.61 0.61 0.61 0.61 0.61 0.61 0.61 0.61 0.60 0.58 0.56 0.55 0.54 0.52 0.50 0.48 0.47 0.46 0.45 0.44 0.45 0.47 0.48 0.48 0.49 0.49 0.49 0.48 0.47 0.48 0.48 0.48 0.48 0.48
0.89 0.86 0.82 0.79 0.76 0.73 0.71 0.68 0.67 0.67 0.68 0.70 0.71 0.72 0.72 0.72 0.70 0.68 0.65 0.64 0.62 0.61 0.59 0.59 0.59 0.61 0.62 0.62 0.61 0.58 0.54 0.53 0.53 0.53 0.53 0.53 0.54 0.54 0.54 0.55 0.55 0.56 0.58 0.58 0.59 0.60 0.60 0.59 0.60 0.60 0.60 0.60 0.60 0.60 0.60 0.59 0.58 0.57 0.56 0.55 0.53 0.51 0.49 0.48 0.47 0.46 0.45 0.44 0.44 0.44 0.45 0.46 0.47 0.47 0.46 0.48 0.50 0.49 0.50 0.50 0.49 0.49 0.49 0.49 0.49
0.73 0.72 0.70 0.70 0.70 0.68 0.65 0.64 0.66 0.67 0.68 0.69 0.69 0.67 0.67 0.67 0.65 0.63 0.61 0.59 0.58 0.58 0.58 0.58 0.59 0.61 0.62 0.61 0.59 0.58 0.55 0.54 0.53 0.52 0.52 0.53 0.53 0.52 0.54 0.54 0.56 0.56 0.56 0.57 0.58 0.58 0.58 0.58 0.58 0.58 0.58 0.58 0.57 0.56 0.55 0.54 0.53 0.52 0.50 0.48 0.46 0.45 0.44 0.44 0.44 0.44 0.43 0.43 0.44 0.44 0.44 0.46 0.47 0.47 0.48 0.49 0.48 0.48 0.49 0.49 0.49 0.49 0.49 0.49 0.50
0.67 0.65 0.64 0.64 0.63 0.63 0.62 0.63 0.63 0.63 0.63 0.64 0.64 0.65 0.63 0.61 0.59 0.58 0.58 0.58 0.59 0.59 0.58 0.57 0.58 0.60 0.60 0.60 0.59 0.56 0.53 0.52 0.51 0.50 0.50 0.50 0.50 0.51 0.52 0.53 0.54 0.55 0.56 0.57 0.57 0.57 0.56 0.55 0.54 0.54 0.54 0.52 0.51 0.50 0.49 0.48 0.47 0.47 0.47 0.46 0.44 0.43 0.43 0.43 0.43 0.43 0.43 0.42 0.43 0.43 0.44 0.46 0.47 0.47 0.48 0.49 0.49 0.48 0.48 0.49 0.49 0.49 0.49 0.49 0.49
0.67 0.62 0.63 0.62 0.61 0.59 0.59 0.57 0.56 0.57 0.57 0.59 0.60 0.60 0.60 0.59 0.59 0.59 0.59 0.59 0.59 0.59 0.57 0.57 0.57 0.57 0.57 0.57 0.54 0.51 0.48 0.48 0.47 0.47 0.47 0.48 0.48 0.48 0.49 0.51 0.52 0.52 0.53 0.53 0.53 0.54 0.53 0.52 0.51 0.50 0.50 0.49 0.49 0.48 0.47 0.47 0.47 0.46 0.44 0.44 0.44 0.43 0.43 0.42 0.42 0.42 0.42 0.41 0.42 0.43 0.44 0.45 0.46 0.47 0.47 0.48 0.48 0.47 0.48 0.48 0.48 0.48 0.49 0.49 0.50
0.64 0.61 0.59 0.56 0.53 0.52 0.53 0.54 0.54 0.55 0.56 0.56 0.57 0.58 0.59 0.59 0.59 0.60 0.59 0.58 0.58 0.57 0.57 0.56 0.55 0.53 0.50 0.49 0.47 0.46 0.45 0.44 0.44 0.44 0.44 0.44 0.44 0.45 0.46 0.46 0.46 0.47 0.47 0.48 0.49 0.49 0.49 0.48 0.47 0.47 0.46 0.47 0.47 0.48 0.48 0.47 0.47 0.46 0.45 0.44 0.42 0.41 0.41 0.41 0.42 0.43 0.42 0.41 0.42 0.43 0.44 0.45 0.45 0.46 0.47 0.48 0.48 0.48 0.47 0.48 0.48 0.48 0.48 0.49 0.49
0.62 0.60 0.58 0.55 0.52 0.52 0.52 0.53 0.55 0.55 0.56 0.56 0.57 0.58 0.59 0.60 0.60 0.59 0.58 0.57 0.57 0.55 0.54 0.53 0.51 0.49 0.48 0.47 0.46 0.45 0.44 0.43 0.43 0.44 0.44 0.44 0.44 0.45 0.46 0.46 0.47 0.47 0.48 0.48 0.48 0.48 0.48 0.48 0.47 0.47 0.47 0.47 0.48 0.48 0.48 0.47 0.47 0.46 0.45 0.44 0.42 0.42 0.43 0.43 0.44 0.43 0.42 0.42 0.42 0.44 0.45 0.46 0.46 0.47 0.48 0.49 0.48 0.49 0.48 0.49 0.49 0.49 0.49 0.49 0.49
0.57 0.56 0.57 0.55 0.53 0.53 0.54 0.54 0.54 0.54 0.55 0.56 0.56 0.56 0.56 0.57 0.56 0.56 0.55 0.54 0.53 0.52 0.49 0.48 0.48 0.47 0.47 0.46 0.46 0.45 0.44 0.43 0.42 0.41 0.41 0.42 0.43 0.44 0.45 0.45 0.44 0.45 0.45 0.46 0.47 0.47 0.47 0.48 0.48 0.48 0.48 0.48 0.47 0.47 0.46 0.45 0.44 0.44 0.44 0.44 0.43 0.43 0.43 0.44 0.43 0.43 0.43 0.43 0.45 0.46 0.46 0.46 0.46 0.47 0.48 0.49 0.49 0.49 0.50 0.50 0.50 0.49 0.49 0.50 0.49
0.61 0.58 0.56 0.56 0.55 0.54 0.54 0.55 0.54 0.54 0.54 0.53 0.53 0.53 0.53 0.53 0.52 0.51 0.50 0.50 0.49 0.48 0.48 0.48 0.48 0.48 0.48 0.47 0.46 0.45 0.44 0.43 0.42 0.42 0.42 0.42 0.43 0.43 0.43 0.43 0.43 0.43 0.44 0.45 0.46 0.46 0.47 0.47 0.47 0.48 0.48 0.47 0.46 0.45 0.45 0.44 0.43 0.43 0.43 0.44 0.44 0.44 0.43 0.43 0.43 0.43 0.43 0.44 0.46 0.48 0.48 0.47 0.48 0.48 0.48 0.49 0.49 0.49 0.48 0.48 0.49 0.50 0.50 0.50 0.51
0.61 0.58 0.56 0.56 0.56 0.55 0.55 0.55 0.54 0.53 0.52 0.51 0.50 0.50 0.50 0.50 0.49 0.49 0.49 0.49 0.48 0.48 0.48 0.48 0.48 0.47 0.46 0.45 0.45 0.45 0.44 0.44 0.43 0.44 0.44 0.44 0.44 0.44 0.44 0.44 0.44 0.44 0.43 0.43 0.44 0.44 0.45 0.46 0.47 0.48 0.48 0.48 0.47 0.46 0.45 0.44 0.43 0.43 0.43 0.43 0.44 0.43 0.43 0.44 0.44 0.44 0.44 0.44 0.46 0.49 0.49 0.49 0.49 0.48 0.48 0.48 0.49 0.50 0.49 0.50 0.50 0.50 0.50 0.50 0.50
0.61 0.59 0.57 0.56 0.55 0.54 0.55 0.54 0.53 0.52 0.51 0.51 0.50 0.49 0.50 0.49 0.49 0.49 0.49 0.49 0.49 0.48 0.48 0.48 0.46 0.46 0.45 0.45 0.45 0.45 0.45 0.44 0.44 0.45 0.45 0.45 0.45 0.45 0.44 0.44 0.43 0.42 0.42 0.42 0.42 0.43 0.44 0.46 0.48 0.48 0.48 0.47 0.46 0.45 0.45 0.44 0.43 0.43 0.44 0.44 0.44 0.44 0.44 0.44 0.44 0.45 0.44 0.45 0.47 0.49 0.49 0.49 0.49 0.48 0.48 0.49 0.50 0.50 0.50 0.50 0.50 0.51 0.49 0.47 0.48
0.59 0.59 0.58 0.56 0.55 0.54 0.53 0.52 0.51 0.51 0.50 0.50 0.50 0.51 0.51 0.51 0.50 0.51 0.50 0.49 0.47 0.47 0.47 0.47 0.47 0.47 0.46 0.46 0.46 0.45 0.45 0.45 0.46 0.46 0.46 0.45 0.45 0.44 0.44 0.43 0.42 0.42 0.42 0.42 0.42 0.43 0.45 0.47 0.48 0.48 0.48 0.48 0.47 0.46 0.45 0.44 0.44 0.44 0.44 0.45 0.44 0.44 0.45 0.45 0.45 0.46 0.46 0.47 0.48 0.49 0.49 0.48 0.48 0.47 0.47 0.48 0.49 0.49 0.50 0.50 0.49 0.49 0.48 0.48 0.48
Wind_Speed
20 20 20 19 19 19 19 19 18 18 17 16 15 15 14 14 13 12 12 11 11 11 11 10 10 10 10 9 9 9 9 9 9 9 9 9 9 9 8 8 8 8 8 8 8 7 7 8 8 8 8 9 9 9 9 9 9 9 9 9 10 10 10 10 10 12 12 12 13 13 13 14 14 14 14 15 15 15 15 14 14 13 13 12 12
21 20 20 20 20 20 19 19 19 18 18 17 16 16 15 15 14 13 13 12 12 12 11 11 10 10 10 10 10 10 10 10 10 10 10 10 10 10 9 9 9 9 9 9 9 9 9 9 9 9 9 9 9 9 9 9 10 10 10 10 11 11 11 11 12 12 13 14 14 14 14 14 15 15 15 15 15 15 14 14 14 14 13 12 12
22 21 21 21 21 20 20 20 19 19 19 18 17 17 16 15 15 14 14 13 13 13 12 12 12 11 11 11 11 11 11 11 11 11 11 11 10 10 10 10 10 10 10 10 10 10 10 10 10 10 9 9 10 10 10 10 10 11 11 11 12 12 12 12 13 13 14 14 14 15 15 15 16 16 16 16 15 15 14 14 14 14 13 13 12
23 22 22 22 22 21 21 20 20 20 19 19 18 18 17 16 16 15 15 14 14 13 13 13 13 13 13 12 12 12 12 12 12 12 12 12 11 11 11 11 11 11 11 11 10 10 10 10 10 10 10 10 10 10 11 11 11 12 12 12 12 13 13 13 14 14 14 15 16 16 17 17 17 17 17 16 16 16 15 15 15 14 14 14 13
24 23 23 23 23 22 22 21 21 21 20 20 19 18 18 17 17 16 16 15 14 14 14 14 14 14 14 14 14 13 13 13 13 13 13 12 12 12 12 12 12 12 12 12 11 11 11 11 11 11 11 11 11 11 11 12 12 12 12 13 13 14 14 14 15 15 16 17 17 18 18 18 18 18 18 18 17 17 17 16 16 15 15 14 14
25 24 24 23 23 23 23 23 22 22 21 21 20 19 19 18 18 17 16 16 15 15 15 15 15 14 14 14 14 14 14 14 14 14 14 14 14 14 13 13 13 13 12 12 12 12 12 12 11 11 11 11 12 12 12 12 12 13 13 14 14 15 15 16 16 17 17 18 18 19 19 19 19 19 19 19 19 19 18 18 17 17 16 16 16
26 25 25 24 24 24 24 24 23 23 22 21 21 20 20 19 19 18 17 17 16 16 16 16 15 15 15 15 15 14 14 14 15 15 15 15 15 15 14 14 14 13 13 13 13 13 12 12 12 12 12 12 13 13 13 13 13 13 14 15 15 16 17 17 17 18 18 19 19 20 20 20 20 20 20 20 20 20 19 19 19 18 18 18 18
27 26 26 25 24 24 24 24 24 23 23 22 22 21 21 20 20 19 19 18 17 17 17 16 16 15 15 15 15 15 15 15 15 15 16 16 16 15 15 15 15 14 14 14 14 14 14 13 13 13 13 13 14 13 14 14 14 14 15 16 16 17 17 18 18 19 19 20 20 21 21 21 21 21 21 21 21 21 20 20 20 20 20 19 20
28 28 27 26 25 25 24 24 24 24 24 23 23 22 21 20 20 20 20 19 18 18 17 17 16 16 15 15 15 15 15 15 15 16 16 16 16 16 16 15 15 15 15 14 14 14 14 14 14 14 14 13 13 13 14 14 15 15 16 17 17 18 18 19 19 20 20 21 21 22 22 22 22 22 22 22 21 22 21 21 21 21 21 21 21
29 29 28 27 26 25 25 25 25 25 24 24 23 23 22 21 21 21 20 20 19 18 18 18 17 17 16 16 16 16 16 16 16 16 16 16 16 16 16 16 16 16 16 15 15 14 14 14 14 13 13 13 13 14 14 15 16 16 17 18 18 19 19 19 20 20 21 21 22 22 22 22 22 22 22 22 22 22 22 22 23 23 23 23 23
30 30 29 28 27 26 26 25 25 25 24 24 24 23 22 22 21 21 21 21 20 19 19 19 19 18 17 17 17 17 17 17 17 17 16 17 17 17 17 17 17 17 17 16 16 15 15 14 14 14 14 14 14 15 16 16 17 18 18 18 19 19 19 19 20 20 20 21 21 22 22 22 22 22 22 22 23 23 23 23 24 24 24 23 23
31 31 30 29 28 27 26 26 26 26 25 25 25 24 23 23 22 22 22 21 21 20 20 20 19 19 18 18 18 18 18 17 17 18 18 18 18 18 18 18 19 19 19 18 17 17 16 16 15 15 15 15 16 16 17 18 18 18 19 19 19 19 19 19 20 20 20 21 21 21 22 22 23 23 23 23 23 23 24 24 24 24 24 24 24
33 32 31 30 29 28 28 27 27 27 26 26 26 25 24 24 23 23 22 22 21 21 21 21 20 20 19 19 19 18 18 18 18 19 19 19 19 19 19 20 20 20 20 19 18 18 17 17 16 16 16 17 17 18 18 19 19 19 19 19 19 19 19 19 20 20 21 21 21 22 22 22 22 23 23 23 23 23 23 23 23 24 24 24 25
33 33 32 31 31 30 29 29 28 28 28 27 27 26 26 25 24 24 23 22 22 22 22 21 21 20 20 20 20 19 19 19 20 20 20 20 21 21 21 21 21 20 20 20 19 19 19 18 18 18 18 18 18 19 19 19 19 19 19 19 19 19 19 20 20 20 20 20 21 21 21 21 22 22 22 22 23 23 22 22 23 23 23 24 24
34 34 33 33 32 31 30 30 30 30 29 28 28 27 27 26 25 24 23 23 22 22 21 21 21 20 20 20 20 20 20 20 20 21 21 22 22 22 22 22 22 21 20 20 20 19 19 18 18 18 19 19 19 19 19 19 19 18 18 18 18 19 19 20 20 20 20 20 20 20 20 20 21 21 22 22 22 21 22 22 22 23 23 23 23
35 34 34 34 33 33 32 32 31 31 30 30 29 28 27 26 25 24 23 22 22 22 22 21 21 21 21 21 21 21 21 21 21 21 22 22 23 23 23 23 22 22 21 21 21 20 20 19 19 19 19 19 19 19 19 19 18 18 18 18 18 19 19 19 19 19 19 19 19 18 19 19 19 20 21 21 21 21 21 22 22 22 23 23 23
36 35 35 34 34 34 34 34 33 32 31 30 29 28 27 26 25 24 23 22 22 22 22 22 21 21 21 21 21 21 21 22 22 22 22 23 24 24 24 24 23 22 22 21 21 21 20 20 20 20 20 19 19 19 18 18 18 18 18 18 18 18 19 19 19 18 18 18 17 17 18 18 18 19 20 20 20 20 20 21 22 22 22 23 23
35 35 36 35 34 34 33 33 33 33 33 32 30 29 27 26 25 25 24 23 23 23 22 22 21 21 21 21 21 21 22 22 23 23 23 24 24 25 24 24 24 23 23 22 22 21 21 20 20 20 20 18 18 17 17 17 17 17 18 18 18 18 18 18 18 17 17 17 17 17 18 18 19 19 19 20 20 20 20 21 22 22 22 23 23
35 35 35 36 35 35 34 33 32 32 31 31 30 29 27 26 25 25 24 23 23 22 22 22 22 21 21 21 21 21 22 23 24 24 25 24 24 25 25 25 24 24 23 23 22 21 21 21 20 19 18 17 16 16 16 16 16 17 17 17 17 17 18 18 18 18 18 18 18 18 19 19 19 20 20 21 21 21 21 22 22 22 22 23 24
36 36 35 35 35 35 34 33 33 32 31 30 28 27 26 25 24 24 23 23 23 22 22 22 21 22 22 22 22 22 23 23 24 24 25 25 25 24 24 25 24 23 22 22 21 21 21 21 19 17 16 15 15 15 15 15 16 17 17 17 17 17 17 18 18 19 19 19 19 19 19 20 20 21 21 22 22 22 22 22 23 23 23 23 24
35 36 36 35 35 34 33 33 33 33 33 31 28 26 26 25 23 23 23 23 23 22 22 22 21 21 22 22 22 22 23 23 23 22 22 23 24 24 23 24 24 23 21 21 21 20 20 19 17 16 16 15 15 16 16 17 18 18 18 18 17 17 18 18 19 19 19 19 19 20 20 20 21 21 22 22 22 23 23 24 24 24 24 24 24
32 34 35 35 34 34 33 33 33 33 33 31 28 26 26 25 24 23 23 22 22 21 21 21 21 21 21 21 22 22 22 22 22 22 21 20 21 21 21 22 24 23 22 21 21 20 19 18 17 17 16 16 16 17 17 18 18 18 18 18 17 17 18 18 19 19 19 20 20 20 21 21 22 23 23 23 23 24 24 25 25 25 25 25 25
29 31 33 34 34 33 33 32 31 31 31 29 27 26 25 25 24 23 22 22 21 20 20 20 20 20 20 20 20 21 21 20 19 20 20 19 19 19 18 18 19 20 20 19 18 18 17 17 17 17 17 17 17 17 17 17 17 17 18 17 17 17 18 18 19 19 20 20 21 21 21 22 23 23 24 24 25 25 25 26 26 26 26 26 26
26 28 30 31 32 32 31 30 30 30 29 28 26 25 24 24 24 23 22 21 21 19 19 19 19 19 18 19 19 19 19 19 18 18 18 18 17 16 15 14 14 14 15 16 17 17 17 17 17 16 16 15 14 14 14 14 15 15 16 16 16 17 18 18 19 19 20 20 21 21 22 23 23 24 24 25 25 26 26 27 27 27 27 27 27
23 23 24 26 28 29 29 29 28 28 27 26 24 23 23 23 23 22 22 21 20 19 19 18 18 17 17 17 17 16 15 14 14 14 14 14 14 14 14 13 13 13 13 14 15 15 15 14 14 13 12 12 11 11 12 12 12 13 14 15 15 16 17 18 19 19 20 20 21 22 22 23 23 24 24 25 26 27 27 28 28 29 29 29 29
18 18 19 20 22 25 26 27 27 26 25 25 23 22 21 21 21 21 21 20 20 19 19 18 17 16 15 14 13 12 11 10 10 11 10 10 10 11 11 11 12 12 13 13 13 13 13 12 12 11 10 10 11 11 11 12 12 13 14 15 16 17 18 19 20 20 20 21 21 21 22 23 23 24 25 26 26 27 28 28 29 30 30 30 31
16 16 16 17 18 20 21 23 24 24 23 23 22 21 21 20 20 20 20 20 19 18 18 17 16 15 14 13 11 11 10 10 9 9 9 8 8 8 9 9 10 11 12 13 13 12 12 11 10 10 10 10 11 12 12 13 14 15 16 17 18 19 20 20 20 20 20 20 21 21 22 23 24 25 26 27 27 28 29 29 30 30 31 32 32
13 14 14 15 15 16 17 19 20 21 21 21 20 20 19 19 19 19 19 18 17 16 16 15 14 13 12 11 11 10 9 9 9 9 9 9 9 9 9 9 10 10 10 11 11 11 10 10 10 10 11 11 12 12 13 14 15 16 17 18 19 19 19 19 19 20 20 21 22 22 24 25 26 27 28 28 29 30 31 31 31 32 32 33 33
10 12 13 14 14 14 15 16 17 18 19 19 17 16 16 16 15 15 15 15 15 15 14 14 13 12 11 10 10 9 9 9 9 9 10 10 10 10 9 9 9 10 9 9 10 10 10 10 11 11 12 12 12 12 13 14 15 16 17 18 19 19 19 20 20 21 22 23 24 25 26 27 28 29 30 30 31 32 32 33 33 33 34 34 34
10 12 13 14 13 13 14 15 16 16 16 15 15 14 14 13 13 13 13 13 13 13 12 12 12 11 10 10 9 9 9 9 10 10 10 9 9 9 9 9 9 9 9 9 9 9 10 10 11 11 12 12 12 13 14 15 16 17 18 19 20 20 21 22 22 23 24 25 26 27 28 29 30 31 31 32 33 33 34 34 34 35 35 35 36
10 10 12 12 12 13 13 13 14 15 14 14 14 14 14 13 12 12 12 12 12 11 10 10 9 9 9 9 9 9 9 9 9 9 9 8 8 7 7 7 8 8 8 8 9 9 9 10 10 11 12 12 13 14 15 16 17 18 19 20 21 22 23 23 24 25 26 27 28 28 29 30 31 32 32 33 34 35 35 36 36 37 37 37 38
10 10 11 11 12 12 12 12 13 14 14 14 14 14 14 13 12 11 10 10 10 9 8 8 8 7 7 7 7 7 7 7 8 8 8 7 7 7 7 7 7 8 8 9 9 9 10 10 11 12 13 14 15 16 17 18 19 20 21 21 22 23 24 25 26 27 27 28 29 30 31 31 32 33 34 35 36 36 37 38 38 39 39 39 40
11 11 11 12 13 13 13 12 13 13 13 13 13 13 13 13 12 11 10 9 9 8 7 7 6 6 5 6 6 6 7 7 7 7 7 7 7 7 7 7 8 8 9 9 9 10 11 11 12 13 14 15 16 17 18 19 20 21 22 22 23 24 25 26 27 28 29 30 30 31 32 33 34 35 36 37 37 38 39 39 40 40 40 40 40
11 11 12 13 13 14 14 13 13 13 13 13 13 12 12 12 11 10 10 9 8 7 6 6 6 6 6 6 6 7 7 7 7 7 7 7 7 7 8 8 8 9 10 10 10 10 11 12 13 14 15 16 17 18 19 20 21 22 23 24 25 25 26 27 28 29 30 31 32 33 34 34 35 36 37 38 39 39 40 40 41 41 41 41 41
11 12 13 13 13 13 13 13 13 13 13 13 12 12 11 11 10 10 9 8 8 7 6 6 6 6 6 6 6 6 6 6 7 7 7 8 8 8 9 9 9 10 10 11 11 11 12 13 14 15 16 17 18 19 20 21 22 23 24 25 26 27 28 29 30 31 31 32 33 34 35 36 37 38 38 39 40 40 40 41 41 41 41 41 41
13 13 13 12 12 12 12 11 11 11 11 11 10 10 9 9 9 8 8 8 7 7 7 6 6 6 6 6 6 6 6 7 7 8 8 9 9 10 10 10 10 10 11 11 11 12 13 14 15 16 17 18 19 20 21 22 23 24 25 26 27 28 29 30 31 32 33 34 35 36 36 37 38 39 39 40 40 41 41 41 41 41 41 41 41
13 13 12 11 11 11 10 10 9 9 9 9 9 9 8 8 8 7 7 7 7 6 6 6 6 6 6 6 6 7 7 8 8 9 9 10 10 11 11 11 11 11 11 11 12 13 14 15 16 17 18 19 20 21 22 23 24 25 26 27 28 29 30 31 32 33 34 35 36 37 37 38 39 39 40 40 40 41 41 41 41 41 41 40 40
12 12 11 11 10 10 10 9 9 9 9 9 9 8 8 8 7 7 7 7 7 6 6 6 6 6 6 7 7 8 8 8 9 9 10 10 10 10 11 11 11 11 12 12 13 14 15 16 17 18 19 21 22 22 23 24 25 26 27 28 29 30 31 32 33 34 35 36 37 37 38 39 39 40 40 40 41 41 41 41 40 40 40 39 39
12 11 10 10 10 10 9 9 9 9 9 9 9 9 9 8 8 8 7 7 7 7 7 7 7 7 7 8 8 8 8 8 8 9 9 10 10 10 11 11 11 12 13 13 14 15 16 18 19 20 21 22 23 24 25 26 26 27 28 29 30 31 32 34 35 35 36 37 37 38 39 39 40 40 40 40 40 40 40 40 40 39 39 39 38
12 11 10 10 10 10 9 9 9 9 9 9 9 9 9 9 9 8 8 8 7 7 7 7 7 7 7 8 8 8 8 8 8 9 9 10 11 11 12 12 13 13 14 15 16 17 18 19 20 21 22 23 24 25 26 27 28 29 29 30 31 33 34 35 35 36 37 37 38 38 39 39 39 39 40 40 40 40 39 39 39 38 38 38 37
12 11 11 10 10 10 9 9 9 9 9 9 9 9 9 9 9 8 8 8 7 7 7 6 6 7 7 7 8 8 8 9 9 10 11 11 11 12 13 13 14 15 16 17 18 19 20 21 22 23 24 24 25 26 27 28 29 30 31 32 33 34 34 35 35 36 36 37 38 38 39 39 39 39 39 39 39 39 38 38 37 37 36 36 35
13 12 11 11 10 10 9 9 9 9 9 9 9 9 8 8 8 8 7 7 7 6 6 6 6 7 7 8 8 9 10 10 10 11 11 12 12 13 14 14 15 16 17 18 19 20 21 22 23 24 25 26 27 28 28 29 30 31 31 32 33 34 34 35 35 36 36 37 37 38 38 38 38 38 38 38 38 37 37 36 35 34 34 33 33
13 12 12 11 10 10 9 9 9 9 9 9 9 8 8 8 8 7 7 7 7 7 7 7 7 8 8 9 9 10 10 11 11 11 12 13 13 14 15 16 17 18 19 20 20 21 22 23 24 25 26 27 27 28 29 29 30 31 32 32 33 33 34 35 35 36 36 37 37 37 37 37 37 37 37 37 36 36 35 34 33 32 31 31 31
13 13 12 11 10 10 10 10 10 9 9 9 9 8 8 8 8 8 8 8 8 8 8 8 8 9 9 10 11 11 11 11 12 12 13 14 14 15 16 17 18 19 20 21 21 22 23 24 25 25 26 26 27 28 28 29 30 31 31 32 33 33 34 34 35 35 36 36 36 36 36 36 36 36 36 35 35 34 32 31 30 30 29 29 30
13 12 11 11 10 10 10 10 10 9 9 9 8 8 8 9 8 8 8 8 8 8 9 9 9 10 10 11 11 12 12 12 13 13 14 15 15 16 17 18 19 20 21 21 22 23 23 24 25 25 26 27 27 28 28 29 30 30 31 32 32 33 33 34 34 35 35 36 36 36 35 35 35 34 34 33 32 31 30 29 28 28 28 28 28
12 12 12 11 11 11 11 10 10 9 9 9 9 9 9 9 9 9 9 9 9 9 9 10 10 10 11 11 12 12 12 13 13 14 15 16 16 17 18 19 20 20 21 22 22 23 23 24 25 25 26 27 27 28 28 29 30 30 31 31 32 33 33 34 34 35 35 35 35 35 34 34 33 33 32 31 29 28 27 26 26 26 26 26 26
12 12 12 12 12 11 11 10 10 10 9 9 9 9 9 9 9 9 9 9 9 10 10 10 11 11 11 12 12 13 13 14 15 15 16 17 18 19 19 20 20 21 21 22 22 23 24 25 26 26 27 27 28 28 29 29 30 30 31 32 32 33 34 34 34 35 35 35 34 34 33 32 31 30 29 28 27 26 25 25 25 25 25 25 25
12 12 12 12 12 11 11 10 10 10 10 10 10 10 9 9 9 9 10 10 10 10 11 11 11 12 12 13 13 14 15 15 16 16 17 18 18 19 20 21 21 22 22 23 24 25 25 26 26 27 27 27 28 28 29 29 30 30 31 32 33 33 34 34 34 35 35 34 33 33 32 30 29 28 27 26 25 25 24 24 24 24 24 24 25
12 12 13 12 11 10 10 10 10 10 10 10 10 10 10 10 10 10 10 11 11 11 12 12 13 13 14 14 15 16 16 17 17 17 18 19 19 20 20 21 22 22 23 24 25 25 25 26 26 26 27 27 28 28 28 29 29 30 31 32 32 33 34 34 34 34 34 33 32 31 30 28 27 26 25 25 24 24 24 23 23 23 24 24 25
13 13 12 11 10 10 10 10 10 10 10 10 10 10 10 10 11 11 11 12 12 13 13 13 14 15 15 16 16 17 17 18 18 19 19 20 20 20 21 21 22 22 23 24 24 25 25 25 25 26 26 27 27 28 28 29 30 30 31 32 33 33 34 34 34 34 33 31 30 29 28 26 25 24 24 23 23 23 23 23 23 23 24 25 25
14 13 12 11 10 10 10 10 10 10 11 11 11 11 11 11 12 12 12 13 13 14 14 14 15 15 16 17 17 18 18 18 19 19 20 20 20 21 21 22 22 23 23 24 24 25 25 25 25 26 26 27 27 28 28 29 30 30 31 32 33 33 33 33 33 32 31 29 28 27 26 25 24 23 23 23 22 22 22 22 23 23 24 25 25
Wind_Direction
211 211 211 210 210 209 209 210 211 212 214 214 214 214 214 214 214 215 215 216 216 217 218 220 223 226 227 230 234 237 238 240 242 245 249 251 252 253 253 253 255 258 260 261 264 265 268 272 276 279 281 284 287 290 292 295 297 300 301 303 305 306 306 304 303 305 309 313 316 318 320 321 321 323 324 323 323 324 323 322 322 322 321 319 318
212 212 212 211 211 211 211 212 212 214 215 216 216 216 216 217 216 217 218 218 219 221 221 221 223 226 229 232 235 237 238 240 243 246 249 251 251 252 253 253 256 259 261 263 265 267 270 273 276 280 283 285 288 291 293 294 297 299 300 302 304 305 305 303 303 304 306 309 313 315 318 319 319 320 322 321 321 322 322 321 321 321 320 319 318
214 214 214 213 213 213 213 213 214 215 216 217 217 218 218 219 218 219 221 221 222 223 223 223 225 228 231 234 237 239 243 245 247 249 250 250 250 251 253 254 257 260 262 266 268 269 271 273 276 280 284 286 288 291 292 293 295 296 298 300 302 304 303 302 302 303 304 307 310 313 315 317 317 318 319 319 319 320 320 319 318 318 318 318 317
216 215 215 215 214 215 215 215 215 216 217 218 219 220 220 221 221 222 223 223 223 223 224 225 229 232 235 238 241 244 247 250 252 253 252 250 251 253 255 256 258 261 264 267 269 270 271 273 276 279 281 284 287 289 290 291 292 294 296 298 299 301 302 302 302 303 304 305 308 310 313 314 314 315 316 316 316 316 316 316 315 314 314 315 315
217 217 216 216 216 216 217 217 217 218 219 220 221 222 223 223 223 222 222 223 224 225 227 230 234 237 241 244 246 248 249 250 252 253 251 250 253 256 257 257 258 261 264 266 268 269 270 271 273 275 279 283 286 288 289 291 293 294 296 297 298 299 301 301 302 302 303 304 305 308 310 311 311 312 313 313 313 312 312 311 310 309 309 309 310
219 218 218 218 218 218 218 219 219 220 221 222 223 224 224 225 224 222 223 225 227 229 232 235 238 242 245 248 249 250 251 251 252 252 252 253 256 257 257 257 258 260 263 266 267 268 268 270 272 274 277 281 284 286 288 290 292 294 296 298 298 299 299 300 300 300 301 302 304 306 307 308 308 308 309 310 310 310 310 309 307 305 304 304 305
220 220 220 219 219 220 220 221 221 222 222 223 224 225 226 226 225 224 225 228 230 232 235 238 241 245 247 248 249 251 252 253 254 253 253 255 257 257 256 257 259 260 263 266 266 266 267 269 271 274 277 280 282 284 286 289 292 295 297 298 299 300 300 300 300 300 301 302 303 304 305 306 306 306 306 307 307 307 308 307 305 304 302 301 302
221 221 221 221 221 221 221 222 222 223 224 224 224 225 226 226 227 227 228 230 232 234 237 240 243 246 248 249 250 250 252 253 255 255 256 256 256 255 255 257 260 261 263 265 266 266 267 269 272 274 276 279 281 284 286 289 291 294 297 298 299 300 301 301 301 301 301 302 303 303 304 304 305 305 305 305 305 304 305 304 303 302 300 299 299
222 223 223 222 222 222 223 223 223 224 224 225 225 225 226 227 228 229 230 232 234 236 239 241 243 246 248 249 250 251 251 254 256 258 258 257 255 254 255 258 260 261 262 265 266 267 268 270 272 274 276 279 282 285 288 290 292 294 296 297 299 299 300 301 302 302 302 302 303 303 304 304 304 304 305 305 304 302 302 302 301 300 299 298 297
224 224 223 223 223 223 224 224 224 224 225 225 225 225 226 228 229 230 231 233 235 237 239 241 243 245 247 249 250 251 252 255 257 258 258 257 254 254 256 258 260 261 262 263 264 266 267 269 271 273 276 280 284 287 290 291 293 295 296 297 298 299 300 302 302 303 303 303 303 304 304 304 305 305 305 305 304 303 301 300 299 299 298 296 295
224 224 224 224 224 225 225 225 224 224 224 225 225 226 227 229 231 232 232 234 236 239 240 242 243 245 247 250 251 251 253 255 256 257 258 257 256 255 257 258 260 260 261 262 262 263 264 266 269 272 276 280 284 288 290 292 293 294 295 297 298 300 301 302 302 303 303 303 304 305 305 304 304 304 304 304 304 303 302 300 299 298 297 295 294
225 225 225 226 226 226 226 225 224 223 224 225 226 226 228 230 231 232 233 235 238 240 242 242 243 245 247 249 250 251 253 255 257 258 259 259 258 258 258 259 260 260 260 260 260 260 262 264 267 271 276 281 284 287 290 292 293 294 295 297 299 300 301 301 302 302 302 303 304 305 305 304 303 303 304 304 304 303 303 301 300 299 298 295 294
225 225 225 226 226 226 227 226 225 224 224 225 226 227 229 230 232 233 234 236 238 240 241 241 242 245 248 249 250 252 254 257 259 260 261 261 261 260 260 261 262 263 263 262 261 260 261 263 266 270 275 280 284 286 289 290 292 294 296 297 298 300 301 301 302 302 302 302 303 304 304 304 304 304 304 304 304 303 303 303 303 301 300 297 295
226 226 225 226 227 227 227 227 227 227 227 227 228 228 229 231 232 234 235 237 238 239 240 241 243 246 248 249 251 252 255 258 260 262 263 263 262 262 262 262 264 266 267 267 265 264 264 264 266 270 274 279 283 285 288 290 291 294 295 296 297 300 301 302 302 302 302 302 303 304 305 305 305 305 305 305 304 304 304 305 305 305 303 301 299
228 228 226 226 227 228 228 228 228 228 228 228 228 229 230 230 231 233 235 236 237 238 240 241 244 247 249 250 251 253 256 259 261 262 263 263 263 263 264 264 265 266 267 268 267 268 269 267 268 271 274 278 283 285 287 289 291 292 294 295 297 299 301 302 303 302 302 303 304 305 306 307 308 308 307 306 305 304 304 305 305 305 304 304 303
229 228 228 228 228 229 229 229 229 228 229 229 228 228 229 229 230 232 234 235 237 238 240 242 245 247 250 251 252 255 258 261 263 263 264 264 264 263 264 265 265 266 266 266 266 268 269 268 268 271 274 277 283 286 287 287 289 292 293 294 296 298 300 302 304 305 305 305 306 307 309 311 313 313 312 310 307 305 304 306 307 307 307 306 305
230 229 229 229 229 230 231 230 229 228 228 228 227 227 228 228 229 231 233 235 237 239 241 244 247 248 250 252 254 256 259 263 264 264 266 266 265 264 263 263 264 265 265 264 264 265 266 266 268 271 273 276 282 285 286 287 289 292 294 295 296 298 300 302 304 306 307 307 307 308 309 311 314 315 317 317 314 310 308 309 310 309 309 309 307
230 230 230 230 230 231 232 231 229 228 227 226 226 226 227 228 229 231 233 234 236 239 242 245 247 249 251 253 256 258 262 265 266 266 267 267 266 265 264 263 262 263 263 263 264 265 265 265 267 270 271 274 280 284 285 287 290 293 296 297 298 299 301 302 303 305 306 306 306 307 309 310 312 314 316 317 318 315 313 313 313 312 312 311 309
229 230 230 231 231 232 233 233 231 229 227 225 224 224 226 226 228 231 233 234 236 239 242 244 247 250 252 255 258 261 264 267 268 268 267 267 266 265 263 262 262 261 261 261 261 263 265 265 264 267 269 271 275 279 282 285 290 294 296 297 298 300 301 301 303 304 304 305 305 306 307 308 310 312 313 315 316 316 315 315 314 315 314 313 312
229 229 230 231 232 232 233 233 232 231 228 224 222 223 225 225 226 228 232 234 236 239 243 245 249 253 255 256 259 262 264 266 268 270 268 266 265 264 263 262 261 260 260 259 259 263 265 262 259 262 267 269 272 276 279 283 290 294 296 297 298 299 300 301 302 303 304 305 306 305 306 307 309 310 312 314 315 316 315 315 315 315 314 313 313
229 229 230 231 232 232 233 232 232 232 230 225 223 224 226 227 227 229 233 235 237 240 243 247 251 255 257 258 259 262 265 266 268 272 272 267 263 262 263 261 259 258 258 259 261 262 259 254 255 261 265 269 273 276 279 284 289 293 295 297 298 300 302 303 303 303 303 304 305 306 307 309 311 312 313 313 314 314 314 314 313 313 312 311 311
229 228 229 230 231 231 232 231 231 231 229 225 223 224 226 227 229 231 233 235 237 240 244 249 253 255 257 259 260 262 266 267 268 271 273 272 267 264 265 263 259 257 258 260 259 256 250 250 256 261 266 271 275 277 280 284 288 292 294 296 298 301 303 304 304 303 303 305 306 306 307 309 311 312 313 312 312 311 311 312 312 311 311 310 309
229 228 228 228 229 230 230 230 229 228 226 224 224 225 226 228 229 230 232 234 238 242 246 250 252 253 256 259 261 264 266 267 268 267 268 270 269 266 266 265 258 253 252 252 248 245 249 255 260 263 267 273 276 278 281 284 287 290 292 296 300 302 302 302 303 303 304 305 306 306 307 308 310 310 311 311 310 310 310 311 311 311 310 310 310
227 227 227 227 227 228 228 227 228 228 226 224 224 225 225 226 227 228 230 234 238 241 245 248 249 251 255 258 261 265 266 266 266 265 264 267 268 265 265 266 259 251 248 247 245 248 256 262 264 265 268 270 273 278 283 286 289 292 294 297 300 301 302 303 304 304 305 307 308 308 308 309 309 309 310 309 309 308 309 310 310 310 309 309 309
222 223 224 224 224 223 223 223 224 225 224 224 223 222 222 223 225 227 230 234 237 239 242 245 247 249 252 255 257 262 264 264 263 264 265 267 269 267 265 265 263 258 254 253 252 253 257 260 260 262 264 267 270 276 280 284 289 292 294 297 298 300 302 304 306 306 307 308 309 309 309 309 309 309 309 308 307 307 308 308 308 308 307 306 306
214 215 215 216 217 217 217 218 219 219 220 222 221 221 221 223 224 227 230 233 236 238 239 241 242 243 245 247 249 252 256 259 261 264 266 267 270 270 268 265 263 260 257 255 253 250 250 252 255 258 262 266 271 274 277 281 286 290 293 296 298 299 302 304 305 307 307 308 308 308 308 307 307 307 308 308 308 308 308 307 306 306 305 304 303
208 209 208 208 208 209 210 211 213 214 216 217 219 221 223 225 227 229 230 232 234 234 234 233 233 233 234 236 240 244 249 253 257 261 264 266 267 267 266 262 259 258 257 257 255 252 250 252 255 259 264 270 275 278 281 284 288 293 296 298 299 301 302 304 305 305 306 306 306 306 306 305 305 306 307 307 307 307 307 307 306 306 305 304 303
207 206 204 201 201 202 203 203 206 208 210 213 218 222 224 224 225 227 228 227 224 222 221 220 221 222 224 228 234 240 246 251 256 259 263 266 266 265 263 261 259 259 259 258 258 256 255 254 257 261 267 273 276 279 282 286 291 294 297 298 300 302 303 304 304 304 304 304 304 304 304 304 305 306 306 306 307 307 307 306 306 306 305 304 304
185 188 188 187 188 190 191 191 193 197 202 208 213 215 214 213 214 215 215 213 210 209 209 209 212 216 220 225 232 238 246 253 257 260 264 266 266 264 263 263 263 264 266 265 262 262 260 259 261 265 269 273 275 277 281 286 290 294 297 299 301 302 302 303 304 305 305 305 305 305 305 306 306 306 306 307 307 307 306 306 306 305 305 305 305
155 157 160 163 167 170 171 174 178 183 188 193 196 198 199 200 201 201 200 199 199 201 203 206 210 217 223 230 238 243 248 253 257 259 261 263 263 262 262 263 265 267 270 269 267 267 266 265 266 267 269 271 274 279 284 289 293 296 299 301 302 302 303 304 305 306 306 306 306 306 306 307 307 307 307 307 307 307 306 306 306 306 305 305 305
156 158 160 161 164 166 167 169 172 176 179 181 183 185 187 188 190 191 191 191 192 194 197 201 208 217 224 231 238 242 246 251 254 256 259 261 264 264 265 267 269 271 272 271 271 271 270 270 270 272 274 278 283 287 291 294 297 299 300 302 303 303 304 305 306 307 307 307 307 308 308 308 308 308 308 308 307 307 307 307 306 306 306 305 305
146 151 158 161 162 164 165 166 166 167 169 171 172 174 175 176 179 182 184 184 186 189 192 197 206 217 225 230 235 240 246 252 257 261 263 264 265 267 270 273 276 277 276 275 274 274 274 276 278 281 284 287 290 293 295 297 299 300 301 303 304 304 304 306 307 308 308 308 309 309 309 309 308 308 308 308 307 307 307 306 306 306 305 305 304
143 144 148 151 154 158 161 163 164 165 165 166 166 167 168 170 171 174 178 181 185 190 195 202 211 221 230 239 244 247 251 256 261 265 266 265 264 266 270 274 277 278 278 276 275 276 278 281 283 286 289 291 293 295 297 298 300 301 302 304 305 304 305 306 307 308 309 309 309 308 308 308 307 307 307 307 307 306 306 306 306 305 305 305 304
153 152 150 150 152 155 157 159 162 163 164 165 166 166 166 168 170 172 178 184 190 196 204 214 223 229 236 243 247 249 252 256 260 265 267 266 265 267 269 273 277 280 281 279 279 280 282 284 286 289 291 293 295 296 298 300 301 302 303 303 304 304 304 305 307 308 308 308 307 307 307 307 306 306 306 306 306 306 306 306 306 305 305 305 304
165 162 158 155 155 156 157 159 161 162 163 165 166 166 167 169 172 175 179 183 187 194 202 212 222 229 234 240 244 248 254 260 264 269 272 271 271 272 273 275 277 281 282 283 283 285 287 288 290 292 293 295 296 297 299 300 300 301 302 302 303 304 304 305 307 307 307 307 307 307 307 307 307 307 307 307 307 307 307 307 306 306 305 304 304
170 167 163 161 160 160 161 163 164 166 169 170 171 173 175 178 181 184 188 189 191 195 200 208 217 225 232 241 250 257 265 270 273 275 277 278 278 279 278 278 280 282 284 285 286 288 289 291 292 294 294 296 297 298 299 300 301 302 302 303 304 304 305 306 307 308 308 308 308 308 308 308 307 307 307 307 308 308 308 308 307 307 306 305 304
175 174 172 170 171 172 174 176 177 178 179 181 184 187 189 190 193 195 198 200 202 204 209 216 223 230 240 252 263 270 275 279 281 282 283 284 285 283 282 282 283 285 286 288 289 290 292 294 295 296 297 298 300 300 301 302 302 303 304 305 305 306 307 307 308 308 308 308 308 308 308 308 308 308 308 308 308 308 308 308 307 306 306 306 305
183 183 182 184 187 188 190 192 194 194 194 195 197 198 197 197 198 200 203 206 209 214 219 227 235 242 251 261 269 274 277 281 284 285 287 287 287 285 284 284 286 287 288 290 291 293 295 296 297 298 299 300 301 302 303 303 304 305 305 306 306 307 308 308 308 308 308 308 308 308 309 309 309 309 309 309 309 308 308 307 307 306 306 306 306
189 189 189 191 193 194 196 197 198 201 203 204 205 204 204 203 203 204 207 211 216 223 230 238 246 254 259 265 271 275 278 282 285 286 288 288 288 287 287 288 288 289 290 291 293 294 296 298 299 300 301 302 303 304 304 305 305 306 306 306 307 307 308 308 308 308 309 309 309 309 309 309 309 309 309 309 309 309 308 307 307 307 307 307 307
192 193 193 192 191 192 193 194 196 198 200 202 203 204 204 204 205 207 210 214 220 228 236 244 251 257 261 266 272 277 281 285 287 288 289 289 289 289 290 290 291 292 292 293 295 297 298 300 301 302 303 304 304 305 305 305 306 306 306 307 307 308 308 308 309 309 309 309 309 310 310 310 310 310 310 310 309 309 308 308 308 308 308 307 307
195 196 196 194 192 193 195 196 198 199 200 200 201 201 202 204 206 208 212 216 222 228 236 242 249 256 263 270 278 283 285 286 288 289 290 290 290 290 291 291 292 293 294 295 296 297 299 300 301 302 303 304 305 305 306 306 306 307 307 308 308 308 309 309 309 309 310 310 310 310 310 310 311 310 310 310 310 310 310 310 309 309 308 308 307
199 199 199 199 198 200 202 203 203 202 202 202 202 202 203 206 208 211 215 220 224 228 235 243 250 259 268 276 283 287 288 288 288 289 290 290 291 291 292 293 293 294 295 296 297 298 299 300 301 302 303 304 305 306 306 306 307 307 308 308 309 309 309 309 310 310 310 311 311 311 311 311 311 311 311 311 312 311 311 311 311 310 310 309 309
202 202 203 204 206 209 213 213 210 208 206 205 204 204 207 210 214 218 222 226 230 236 243 249 256 263 271 279 285 288 289 289 289 289 290 291 292 293 294 294 295 296 297 298 299 300 300 301 302 303 305 306 306 307 307 308 308 308 309 309 310 310 310 310 311 311 311 312 312 312 312 312 312 312 312 313 313 312 312 312 311 311 310 310 310
203 204 206 210 214 218 219 217 213 210 208 206 206 210 213 217 221 226 229 233 238 243 249 255 261 268 275 281 286 289 290 289 290 291 292 293 294 294 295 295 296 297 299 300 301 301 302 302 303 304 306 307 308 309 310 310 310 310 310 311 311 311 312 312 312 312 312 313 313 313 313 312 312 312 312 313 313 312 312 312 311 311 311 312 312
204 207 210 215 219 219 216 212 210 209 209 209 213 217 221 223 227 230 234 238 243 248 254 260 266 272 278 283 287 290 291 292 293 293 294 295 295 295 296 297 299 300 300 301 301 302 302 303 304 306 307 309 310 310 311 311 312 312 312 313 313 313 314 314 314 314 314 314 313 313 313 313 313 313 313 313 313 312 312 312 312 312 313 313 314
211 214 218 219 218 213 209 208 209 211 213 216 219 223 226 229 232 236 240 244 248 254 260 265 271 277 282 286 289 291 292 293 294 295 296 297 297 297 298 299 300 301 301 301 302 303 303 304 306 307 308 309 310 311 311 312 313 314 315 315 315 316 316 316 315 315 315 314 314 314 313 313 313 313 314 313 313 313 313 313 313 314 315 316 318
217 221 221 217 212 208 207 210 213 217 220 224 226 229 232 236 240 243 246 250 254 260 265 270 276 281 285 287 289 292 293 295 296 297 298 298 298 299 300 301 301 302 303 303 304 305 306 306 307 308 309 310 311 312 312 314 314 315 316 316 317 317 317 317 316 316 315 314 314 314 314 313 313 314 314 314 313 313 314 314 315 316 317 318 319
217 220 217 211 207 207 210 214 218 222 226 230 232 234 238 241 244 248 251 255 260 265 270 275 279 283 286 288 290 292 294 296 297 298 298 299 300 301 302 303 303 304 305 306 307 307 307 307 308 308 309 310 311 312 313 314 315 316 316 317 318 318 318 318 317 317 316 315 314 314 314 313 313 314 314 313 313 313 314 314 316 317 318 319 320
218 217 213 210 209 213 217 221 225 229 232 234 234 237 240 244 249 253 257 261 265 270 274 277 281 283 285 288 290 292 294 295 296 298 299 300 301 302 302 303 304 305 305 306 307 307 307 307 308 308 309 309 311 312 313 314 315 316 317 318 319 319 319 319 318 318 317 316 315 314 313 313 313 313 313 313 313 313 314 314 315 317 318 319 320
217 216 213 214 218 223 227 230 234 236 238 238 238 240 244 248 253 257 260 264 267 271 274 277 280 283 285 288 290 292 294 295 296 297 298 300 301 302 302 303 304 305 306 306 307 308 308 309 309 309 309 310 311 312 313 315 316 316 317 318 319 320 320 320 319 319 318 317 315 314 313 313 313 313 313 313 314 314 315 315 316 318 319 319 320
219 218 217 221 227 230 232 235 239 242 242 242 242 244 247 251 255 259 261 264 268 270 274 277 281 284 286 289 291 293 294 295 296 297 298 299 300 302 303 304 305 306 307 307 308 308 309 309 309 309 310 310 311 312 314 315 316 316 317 318 319 320 321 321 321 321 320 318 316 314 314 313 312 313 313 314 314 315 316 317 318 318 319 320 321